UTA101 ULLI-ULOO

Flight info

Callsign UTA101
Flight time 0h 50m
Altitude 20000
Route RUMOL1C RUMOL DCT NELUM DCT ABMIS ABMIS3G
Aircraft AN24/M-SDFGR/S

Departure

Time 2026-04-17 22:36
Airport Pulkovo Airport (ULLI)

Arrival

Time 2026-04-17 23:26
Airport Princess Olga Pskov International Airport (ULOO)
Time Latitude Longitude Altitude Speed Heading
2026-04-17 22:17 59.80262 30.26966 88 ft 0 kts 106°
2026-04-17 22:26 59.80262 30.26967 88 ft 0 kts 105°
2026-04-17 22:27 59.80265 30.26950 88 ft 2 kts 105°
2026-04-17 22:27 59.80269 30.26921 88 ft 2 kts 105°
2026-04-17 22:28 59.80273 30.26892 88 ft 2 kts 105°
2026-04-17 22:28 59.80277 30.26863 88 ft 2 kts 105°
2026-04-17 22:28 59.80279 30.26845 88 ft 2 kts 94°
2026-04-17 22:28 59.80277 30.26817 88 ft 2 kts 62°
2026-04-17 22:29 59.80267 30.26796 88 ft 2 kts 29°
2026-04-17 22:29 59.80259 30.26789 88 ft 0 kts 17°
2026-04-17 22:29 59.80259 30.26790 88 ft 0 kts 17°
2026-04-17 22:33 59.80279 30.26802 88 ft 13 kts 16°
2026-04-17 22:33 59.80349 30.26843 88 ft 12 kts 17°
2026-04-17 22:34 59.80411 30.26778 88 ft 7 kts 285°
2026-04-17 22:34 59.80438 30.26608 88 ft 9 kts 299°
2026-04-17 22:34 59.80506 30.26580 88 ft 10 kts 18°
2026-04-17 22:34 59.80614 30.26649 88 ft 12 kts 27°
2026-04-17 22:35 59.80642 30.26782 88 ft 8 kts 105°
2026-04-17 22:35 59.80639 30.26796 88 ft 0 kts 107°
2026-04-17 22:35 59.80617 30.26953 88 ft 47 kts 106°
2026-04-17 22:36 59.80455 30.28055 88 ft 114 kts 104°
2026-04-17 22:36 59.80135 30.29694 314 ft 137 kts 113°
2026-04-17 22:36 59.79707 30.31452 695 ft 147 kts 111°
2026-04-17 22:36 59.79340 30.33394 1074 ft 154 kts 102°
2026-04-17 22:37 59.79068 30.35483 1470 ft 162 kts 102°
2026-04-17 22:37 59.78844 30.37726 1911 ft 167 kts 96°
2026-04-17 22:37 59.78562 30.39988 2364 ft 173 kts 102°
2026-04-17 22:37 59.78236 30.42283 2758 ft 170 kts 102°
2026-04-17 22:38 59.77922 30.44490 3105 ft 167 kts 103°
2026-04-17 22:38 59.77565 30.46695 3425 ft 166 kts 104°
2026-04-17 22:38 59.77237 30.48888 3735 ft 165 kts 102°
2026-04-17 22:38 59.76907 30.51063 4021 ft 166 kts 102°
2026-04-17 22:39 59.76575 30.53267 4303 ft 167 kts 101°
2026-04-17 22:39 59.76246 30.55490 4583 ft 168 kts 101°
2026-04-17 22:39 59.75259 30.59749 5148 ft 171 kts 113°
2026-04-17 22:40 59.74711 30.61876 5417 ft 173 kts 112°
2026-04-17 22:40 59.74165 30.64012 5686 ft 175 kts 112°
2026-04-17 22:40 59.73620 30.66172 5947 ft 177 kts 113°
2026-04-17 22:40 59.73052 30.68360 6194 ft 180 kts 122°
2026-04-17 22:41 59.72334 30.70430 6467 ft 181 kts 122°
2026-04-17 22:41 59.71642 30.72517 6727 ft 182 kts 120°
2026-04-17 22:41 59.71036 30.74713 7004 ft 183 kts 117°
2026-04-17 22:41 59.70419 30.76942 7260 ft 184 kts 117°
2026-04-17 22:42 59.69806 30.79164 7515 ft 186 kts 123°
2026-04-17 22:42 59.68818 30.80778 7687 ft 187 kts 167°
2026-04-17 22:42 59.67562 30.81155 7945 ft 183 kts 179°
2026-04-17 22:42 59.66306 30.81373 8250 ft 180 kts 184°
2026-04-17 22:43 59.65065 30.81428 8551 ft 178 kts 184°
2026-04-17 22:43 59.63835 30.81508 8834 ft 177 kts 184°
2026-04-17 22:43 59.62590 30.81583 9120 ft 176 kts 187°
2026-04-17 22:43 59.61384 30.81533 9410 ft 174 kts 188°
2026-04-17 22:44 59.60174 30.81482 9694 ft 174 kts 188°
2026-04-17 22:44 59.58962 30.81437 9977 ft 173 kts 188°
2026-04-17 22:44 59.57762 30.81402 10260 ft 172 kts 188°
2026-04-17 22:44 59.56573 30.81372 10542 ft 171 kts 188°
2026-04-17 22:45 59.55396 30.81347 10822 ft 170 kts 188°
2026-04-17 22:45 59.54216 30.81407 11097 ft 170 kts 185°
2026-04-17 22:45 59.53033 30.81490 11329 ft 171 kts 185°
2026-04-17 22:45 59.51838 30.81572 11572 ft 172 kts 185°
2026-04-17 22:46 59.50641 30.81656 11823 ft 172 kts 185°
2026-04-17 22:46 59.49455 30.81738 12077 ft 172 kts 185°
2026-04-17 22:46 59.48260 30.81876 12330 ft 172 kts 184°
2026-04-17 22:46 59.47057 30.82039 12565 ft 173 kts 183°
2026-04-17 22:47 59.45867 30.82146 12797 ft 171 kts 187°
2026-04-17 22:47 59.44677 30.82147 13024 ft 172 kts 187°
2026-04-17 22:47 59.43465 30.82153 13245 ft 172 kts 187°
2026-04-17 22:47 59.42267 30.82164 13461 ft 173 kts 187°
2026-04-17 22:48 59.41118 30.81811 13660 ft 165 kts 211°
2026-04-17 22:48 59.40230 30.80459 13868 ft 161 kts 225°
2026-04-17 22:48 59.39382 30.79062 14089 ft 160 kts 223°
2026-04-17 22:48 59.38470 30.77764 14317 ft 160 kts 219°
2026-04-17 22:49 59.37556 30.76520 14514 ft 161 kts 219°
2026-04-17 22:49 59.36644 30.75273 14704 ft 161 kts 219°
2026-04-17 22:49 59.35704 30.74002 14902 ft 164 kts 219°
2026-04-17 22:49 59.34758 30.72733 15133 ft 169 kts 219°
2026-04-17 22:50 59.33775 30.71424 15387 ft 172 kts 219°
2026-04-17 22:50 59.32784 30.70110 15651 ft 174 kts 219°
2026-04-17 22:50 59.31770 30.68765 15927 ft 175 kts 219°
2026-04-17 22:50 59.30753 30.67419 16201 ft 176 kts 219°
2026-04-17 22:51 59.29746 30.66089 16471 ft 177 kts 219°
2026-04-17 22:51 59.28725 30.64744 16742 ft 178 kts 219°
2026-04-17 22:51 59.27687 30.63382 17013 ft 178 kts 219°
2026-04-17 22:51 59.26654 30.62031 17278 ft 178 kts 219°
2026-04-17 22:52 59.25631 30.60697 17538 ft 179 kts 219°
2026-04-17 22:52 59.24581 30.59334 17801 ft 179 kts 219°
2026-04-17 22:52 59.23570 30.57969 18062 ft 178 kts 223°
2026-04-17 22:52 59.22555 30.56531 18347 ft 179 kts 219°
2026-04-17 22:53 59.21532 30.55193 18598 ft 179 kts 219°
2026-04-17 22:53 59.20495 30.53832 18840 ft 181 kts 219°
2026-04-17 22:53 59.19451 30.52470 19082 ft 182 kts 219°
2026-04-17 22:53 59.18394 30.51099 19326 ft 183 kts 219°
2026-04-17 22:54 59.17333 30.49726 19568 ft 184 kts 219°
2026-04-17 22:54 59.16251 30.48329 19783 ft 187 kts 219°
2026-04-17 22:54 59.15159 30.46916 19919 ft 193 kts 219°
2026-04-17 22:54 59.14035 30.45439 20078 ft 197 kts 220°
2026-04-17 22:55 59.12908 30.43891 20249 ft 200 kts 221°
2026-04-17 22:55 59.11751 30.42284 20299 ft 210 kts 221°
2026-04-17 22:55 59.10518 30.40552 20208 ft 224 kts 221°
2026-04-17 22:55 59.09242 30.38748 20213 ft 232 kts 221°
2026-04-17 22:56 59.07923 30.36874 20220 ft 239 kts 221°
2026-04-17 22:56 59.06561 30.34928 20212 ft 246 kts 220°
2026-04-17 22:56 59.05156 30.32905 20198 ft 252 kts 220°
2026-04-17 22:56 59.03732 30.30842 20218 ft 256 kts 220°
2026-04-17 22:57 59.02296 30.28758 20213 ft 261 kts 220°
2026-04-17 22:57 59.00827 30.26679 20224 ft 264 kts 218°
2026-04-17 22:57 58.99283 30.24660 20209 ft 268 kts 218°
2026-04-17 22:57 58.97749 30.22602 20155 ft 272 kts 218°
2026-04-17 22:58 58.96191 30.20512 20241 ft 270 kts 218°
2026-04-17 22:58 58.94641 30.18482 20221 ft 273 kts 216°
2026-04-17 22:58 58.93060 30.16462 20191 ft 275 kts 217°
2026-04-17 22:58 58.91464 30.14397 20198 ft 271 kts 216°
2026-04-17 22:59 58.89921 30.12406 20198 ft 268 kts 216°
2026-04-17 22:59 58.88357 30.10406 20152 ft 267 kts 216°
2026-04-17 22:59 58.86832 30.08467 20220 ft 262 kts 216°
2026-04-17 22:59 58.85318 30.06535 20231 ft 260 kts 216°
2026-04-17 23:00 58.83815 30.04611 20206 ft 259 kts 216°
2026-04-17 23:00 58.82338 30.02718 20205 ft 258 kts 216°
2026-04-17 23:00 58.80846 30.00807 20200 ft 257 kts 216°
2026-04-17 23:00 58.79350 29.98896 20209 ft 255 kts 216°
2026-04-17 23:01 58.77870 29.97010 20196 ft 255 kts 216°
2026-04-17 23:01 58.76404 29.95147 20208 ft 254 kts 216°
2026-04-17 23:01 58.74913 29.93254 20196 ft 253 kts 216°
2026-04-17 23:01 58.73449 29.91395 20209 ft 252 kts 216°
2026-04-17 23:02 58.71975 29.89528 20195 ft 253 kts 216°
2026-04-17 23:02 58.70528 29.87695 20210 ft 252 kts 216°
2026-04-17 23:02 58.69064 29.85844 20196 ft 252 kts 216°
2026-04-17 23:02 58.67595 29.83988 20212 ft 251 kts 216°
2026-04-17 23:03 58.66141 29.82153 20201 ft 251 kts 216°
2026-04-17 23:03 58.64689 29.80322 20209 ft 251 kts 216°
2026-04-17 23:03 58.63232 29.78486 20201 ft 251 kts 216°
2026-04-17 23:03 58.61778 29.76655 20203 ft 251 kts 216°
2026-04-17 23:04 58.60333 29.74836 20208 ft 250 kts 216°
2026-04-17 23:04 58.58858 29.72981 20192 ft 251 kts 216°
2026-04-17 23:04 58.57410 29.71163 20204 ft 250 kts 216°
2026-04-17 23:04 58.55934 29.69251 20101 ft 257 kts 216°
2026-04-17 23:05 58.54470 29.67227 20008 ft 263 kts 217°
2026-04-17 23:05 58.53001 29.65136 19955 ft 266 kts 217°
2026-04-17 23:05 58.51522 29.63032 20037 ft 264 kts 217°
2026-04-17 23:05 58.50041 29.60941 20015 ft 266 kts 216°
2026-04-17 23:06 58.48541 29.58842 19966 ft 269 kts 216°
2026-04-17 23:06 58.47041 29.56751 20035 ft 266 kts 216°
2026-04-17 23:06 58.45546 29.54667 20022 ft 268 kts 216°
2026-04-17 23:06 58.44030 29.52553 19966 ft 271 kts 216°
2026-04-17 23:07 58.42506 29.50431 19832 ft 267 kts 216°
2026-04-17 23:07 58.41016 29.48367 19576 ft 263 kts 216°
2026-04-17 23:07 58.39555 29.46374 19318 ft 260 kts 214°
2026-04-17 23:07 58.38065 29.44489 19078 ft 256 kts 212°
2026-04-17 23:08 58.36537 29.42767 18823 ft 253 kts 211°
2026-04-17 23:08 58.35016 29.41055 18418 ft 257 kts 211°
2026-04-17 23:08 58.33455 29.39306 17901 ft 264 kts 211°
2026-04-17 23:08 58.31867 29.37538 17411 ft 269 kts 211°
2026-04-17 23:09 58.30256 29.35757 16934 ft 272 kts 211°
2026-04-17 23:09 58.28608 29.33932 16403 ft 277 kts 210°
2026-04-17 23:09 58.26935 29.32065 15847 ft 281 kts 210°
2026-04-17 23:09 58.25238 29.30170 15302 ft 283 kts 210°
2026-04-17 23:10 58.23554 29.28296 14778 ft 285 kts 210°
2026-04-17 23:10 58.21843 29.26399 14259 ft 286 kts 210°
2026-04-17 23:10 58.20128 29.24503 13750 ft 286 kts 210°
2026-04-17 23:10 58.18420 29.22616 13253 ft 286 kts 210°
2026-04-17 23:11 58.16698 29.20705 12757 ft 285 kts 211°
2026-04-17 23:11 58.15037 29.18748 12301 ft 283 kts 214°
2026-04-17 23:11 58.13415 29.16631 11844 ft 282 kts 214°
2026-04-17 23:11 58.11830 29.14577 11366 ft 277 kts 214°
2026-04-17 23:12 58.10247 29.12521 10881 ft 273 kts 214°
2026-04-17 23:12 58.08695 29.10501 10402 ft 269 kts 214°
2026-04-17 23:12 58.07180 29.08527 9933 ft 265 kts 214°
2026-04-17 23:12 58.05670 29.06556 9462 ft 262 kts 214°
2026-04-17 23:13 58.04184 29.04618 8998 ft 260 kts 214°
2026-04-17 23:13 58.02705 29.02690 8535 ft 257 kts 214°
2026-04-17 23:13 58.01253 29.00801 8146 ft 252 kts 214°
2026-04-17 23:13 57.99814 28.98964 7781 ft 247 kts 214°
2026-04-17 23:14 57.98410 28.97151 7400 ft 243 kts 214°
2026-04-17 23:14 57.97031 28.95373 7002 ft 241 kts 214°
2026-04-17 23:14 57.95712 28.93465 6632 ft 238 kts 223°
2026-04-17 23:14 57.94655 28.91119 6292 ft 233 kts 236°
2026-04-17 23:15 57.93870 28.88497 5935 ft 231 kts 242°
2026-04-17 23:15 57.93111 28.85839 5532 ft 231 kts 242°
2026-04-17 23:15 57.92352 28.83178 5142 ft 230 kts 242°
2026-04-17 23:15 57.91613 28.80547 4795 ft 230 kts 242°
2026-04-17 23:16 57.90850 28.77794 4606 ft 239 kts 242°
2026-04-17 23:16 57.90077 28.75013 4476 ft 243 kts 242°
2026-04-17 23:16 57.89289 28.72229 4299 ft 236 kts 242°
2026-04-17 23:16 57.88523 28.69564 4100 ft 232 kts 242°
2026-04-17 23:17 57.87763 28.66905 3905 ft 228 kts 242°
2026-04-17 23:17 57.87027 28.64309 3741 ft 223 kts 242°
2026-04-17 23:17 57.86310 28.61770 3571 ft 219 kts 242°
2026-04-17 23:17 57.85590 28.59222 3393 ft 217 kts 242°
2026-04-17 23:18 57.84886 28.56733 3214 ft 215 kts 242°
2026-04-17 23:18 57.84192 28.54280 3058 ft 212 kts 242°
2026-04-17 23:18 57.83503 28.51855 2917 ft 209 kts 242°
2026-04-17 23:18 57.82822 28.49460 2780 ft 210 kts 242°
2026-04-17 23:19 57.82147 28.47091 2820 ft 198 kts 242°
2026-04-17 23:19 57.81474 28.44865 2921 ft 200 kts 241°
2026-04-17 23:19 57.80791 28.42557 2894 ft 206 kts 242°
2026-04-17 23:19 57.79871 28.40508 2820 ft 210 kts 213°
2026-04-17 23:20 57.78498 28.39738 2825 ft 209 kts 180°
2026-04-17 23:20 57.77093 28.40384 2907 ft 205 kts 158°
2026-04-17 23:20 57.75797 28.41502 2896 ft 208 kts 156°
2026-04-17 23:20 57.74439 28.42515 2801 ft 213 kts 165°
2026-04-17 23:21 57.72989 28.42769 2867 ft 210 kts 185°
2026-04-17 23:21 57.71550 28.42428 2885 ft 210 kts 187°
2026-04-17 23:21 57.70081 28.42093 2774 ft 210 kts 187°
2026-04-17 23:21 57.68637 28.41753 2530 ft 211 kts 188°
2026-04-17 23:22 57.67245 28.41037 2288 ft 206 kts 209°
2026-04-17 23:22 57.66270 28.39145 1986 ft 203 kts 245°
2026-04-17 23:22 57.66106 28.36564 1692 ft 205 kts 282°
2026-04-17 23:22 57.66806 28.34383 1515 ft 195 kts 320°
2026-04-17 23:23 57.68032 28.33530 1281 ft 189 kts 360°
2026-04-17 23:23 57.69249 28.34033 1338 ft 166 kts 20°
2026-04-17 23:23 57.70139 28.34813 1548 ft 119 kts 27°
2026-04-17 23:23 57.70914 28.35346 1346 ft 132 kts 11°
2026-04-17 23:24 57.71757 28.35709 1101 ft 123 kts 14°
2026-04-17 23:24 57.72551 28.36084 880 ft 113 kts 16°
2026-04-17 23:24 57.73304 28.36519 708 ft 120 kts 19°
2026-04-17 23:24 57.74103 28.36982 631 ft 115 kts 17°
2026-04-17 23:25 57.74881 28.37455 548 ft 119 kts 15°
2026-04-17 23:25 57.75668 28.37911 476 ft 119 kts 18°
2026-04-17 23:25 57.76446 28.38375 372 ft 119 kts 18°
2026-04-17 23:25 57.77237 28.38849 245 ft 120 kts 18°
2026-04-17 23:26 57.78022 28.39320 155 ft 109 kts 17°
2026-04-17 23:26 57.78662 28.39702 154 ft 69 kts 18°
2026-04-17 23:26 57.78956 28.39882 154 ft 33 kts 16°
2026-04-17 23:26 57.79123 28.39988 157 ft 24 kts 17°
2026-04-17 23:27 57.79256 28.39979 156 ft 0 kts 325°
2026-04-17 23:27 57.79294 28.39919 156 ft 21 kts 317°
2026-04-17 23:28 57.79372 28.39778 158 ft 11 kts 315°
2026-04-17 23:28 57.79459 28.39618 159 ft 16 kts 316°
2026-04-17 23:28 57.79512 28.39524 160 ft 5 kts 314°
2026-04-17 23:28 57.79564 28.39424 161 ft 13 kts 314°
2026-04-17 23:29 57.79601 28.39402 162 ft 6 kts 42°
2026-04-17 23:29 57.79636 28.39481 162 ft 3 kts 37°
2026-04-17 23:29 57.79662 28.39477 162 ft 0 kts 326°
2026-04-17 23:29 57.79669 28.39469 162 ft 0 kts 328°